Location: D�derode
(51.8092°N, 10.1065°E)
Time: 07:06:55
(UTC+00:00)

NOSS 3-2 (A) - Pass Details

Date: 01 December 2020
Orbit: 789 x 1419 km, 63.4° (Epoch: 22 January)

Event Time Altitude Azimuth Distance (km) Brightness Sun altitude
Rises 18:34:22 0° 222° (SW) 3,377 6.9 -30.2°
Reaches altitude 10° 18:36:40 10° 223° (SW) 2,498 6.1 -30.5°
Enters shadow 18:41:26 64° 221° (SW) 1,023 3.6 -31.3°
